| time (UTC) | temp F | wind direction | speed knots | gust knots | rain 1hr in | rain 24hr in | rain mn in | humidity % | barometer mb |
| 20260510081514 | 58 | 360 | 11.3 | 20.0 | 0.00 | 0.00 | 0.00 | 74 | 1014.6 |
| 20260510080010 | 58 | 308 | 13.9 | 17.4 | 0.00 | 0.00 | 0.00 | 76 | 1014.5 |
| 20260510074506 | 58 | 304 | 13.9 | 20.0 | 0.00 | 0.00 | 0.00 | 77 | 1014.9 |
| 20260510073001 | 58 | 306 | 13.9 | 20.9 | 0.00 | 0.00 | 0.00 | 78 | 1015.1 |
| 20260510071557 | 57 | 317 | 13.0 | 19.1 | 0.00 | 0.00 | 0.00 | 80 | 1015.0 |
| 20260510070056 | 57 | 291 | 12.2 | 17.4 | 0.00 | 0.00 | 0.00 | 82 | 1014.9 |
| 20260510064550 | 56 | 294 | 10.4 | 16.5 | 0.00 | 0.00 | 0.00 | 83 | 1014.7 |
| 20260510063046 | 56 | 320 | 7.8 | 13.9 | 0.00 | 0.00 | 0.00 | 85 | 1014.9 |
| 20260510061543 | 55 | 304 | 9.6 | 14.8 | 0.00 | 0.00 | 0.00 | 87 | 1014.9 |
| 20260510060050 | 53 | 313 | 8.7 | 13.0 | 0.00 | 0.00 | 0.00 | 89 | 1015.0 |
| 20260510054539 | 53 | 325 | 10.4 | 14.8 | 0.00 | 0.00 | 0.00 | 90 | 1014.7 |
| 20260510053037 | 53 | 315 | 8.7 | 13.0 | 0.00 | 0.00 | 0.00 | 92 | 1014.7 |
| 20260510051543 | 52 | 296 | 7.8 | 12.2 | 0.00 | 0.00 | 0.00 | 93 | 1014.7 |
| 20260510050035 | 52 | 360 | 6.1 | 9.6 | 0.00 | 0.00 | 0.00 | 93 | 1014.8 |
| 20260510044537 | 51 | 360 | 6.1 | 9.6 | 0.00 | 0.00 | 0.00 | 93 | 1014.8 |
| 20260510043042 | 51 | 360 | 6.1 | 9.6 | 0.00 | 0.00 | 0.00 | 93 | 1014.8 |
| 20260510041534 | 51 | 289 | 7.8 | 11.3 | 0.00 | 0.00 | 0.00 | 93 | 1014.7 |
| 20260510040032 | 51 | 312 | 7.8 | 10.4 | 0.00 | 0.00 | 0.00 | 93 | 1014.5 |
| 20260510034529 | 51 | 284 | 7.0 | 11.3 | 0.00 | 0.00 | 0.00 | 93 | 1014.5 |
| 20260510033025 | 51 | 257 | 7.0 | 13.0 | 0.00 | 0.00 | 0.00 | 93 | 1014.5 |
| 20260510031528 | 51 | 289 | 6.1 | 9.6 | 0.00 | 0.00 | 0.00 | 93 | 1014.9 |
| 20260510030021 | 51 | 360 | 6.1 | 9.6 | 0.00 | 0.00 | 0.00 | 93 | 1014.8 |
| 20260510023033 | 52 | 290 | 3.5 | 7.0 | 0.00 | 0.00 | 0.00 | 93 | 1014.8 |
| 20260510021515 | 52 | 323 | 4.3 | 7.8 | 0.00 | 0.00 | 0.00 | 93 | 1014.9 |
| 20260510020013 | 52 | 305 | 4.3 | 7.8 | 0.00 | 0.00 | 0.00 | 92 | 1014.9 |
| 20260510014513 | 51 | 290 | 4.3 | 7.0 | 0.00 | 0.00 | 0.00 | 91 | 1015.0 |
| 20260510013013 | 51 | 310 | 3.5 | 7.0 | 0.00 | 0.00 | 0.00 | 91 | 1015.1 |
| 20260510011513 | 51 | 307 | 4.3 | 7.0 | 0.00 | 0.00 | 0.00 | 90 | 1015.1 |
| 20260510010012 | 51 | 303 | 3.5 | 7.0 | 0.00 | 0.00 | 0.00 | 89 | 1015.2 |
| 20260510004505 | 51 | 360 | 3.5 | 4.3 | 0.00 | 0.00 | 0.00 | 88 | 1015.3 |
| 20260510003005 | 52 | 317 | 2.6 | 4.3 | 0.00 | 0.00 | 0.00 | 88 | 1015.4 |
| 20260510001500 | 52 | 302 | 2.6 | 5.2 | 0.00 | 0.00 | 0.00 | 87 | 1015.6 |
| 20260510000100 | 52 | 309 | 3.5 | 5.2 | 0.00 | 0.00 | 0.00 | 87 | 1015.5 |
| 20260509234608 | 52 | 317 | 4.3 | 7.0 | 0.00 | 0.00 | 0.00 | 86 | 1015.7 |
| 20260509233102 | 52 | 318 | 4.3 | 7.0 | 0.00 | 0.00 | 0.00 | 86 | 1015.8 |
| 20260509231602 | 52 | 301 | 4.3 | 7.0 | 0.00 | 0.00 | 0.00 | 86 | 1015.9 |
| 20260509230053 | 52 | 313 | 3.5 | 4.3 | 0.00 | 0.00 | 0.00 | 85 | 1015.8 |
| 20260509224549 | 53 | 360 | 2.6 | 5.2 | 0.00 | 0.00 | 0.00 | 85 | 1015.9 |
| 20260509223047 | 53 | 318 | 4.3 | 8.7 | 0.00 | 0.00 | 0.00 | 85 | 1015.8 |
| 20260509221544 | 53 | 316 | 4.3 | 7.0 | 0.00 | 0.00 | 0.00 | 85 | 1015.7 |
| 20260509220045 | 53 | 314 | 3.5 | 7.0 | 0.00 | 0.00 | 0.00 | 85 | 1015.7 |
| 20260509214542 | 53 | 299 | 3.5 | 6.1 | 0.00 | 0.00 | 0.00 | 85 | 1015.8 |
| 20260509213057 | 53 | 304 | 3.5 | 6.1 | 0.00 | 0.00 | 0.00 | 85 | 1016.0 |
| 20260509211606 | 54 | 302 | 3.5 | 8.7 | 0.00 | 0.00 | 0.00 | 84 | 1015.7 |
| 20260509210041 | 54 | 302 | 6.1 | 8.7 | 0.00 | 0.00 | 0.00 | 83 | 1015.7 |
| 20260509204553 | 54 | 286 | 5.2 | 8.7 | 0.00 | 0.00 | 0.00 | 81 | 1015.5 |
| 20260509203044 | 54 | 302 | 3.5 | 7.0 | 0.00 | 0.00 | 0.00 | 79 | 1015.4 |
| 20260509201538 | 55 | 293 | 4.3 | 7.8 | 0.00 | 0.00 | 0.00 | 78 | 1015.4 |
| 20260509200038 | 55 | 313 | 2.6 | 7.0 | 0.00 | 0.00 | 0.00 | 77 | 1015.3 |
| 20260509194539 | 56 | 309 | 4.3 | 8.7 | 0.00 | 0.00 | 0.00 | 75 | 1015.2 |
| 20260509193036 | 57 | 308 | 4.3 | 7.8 | 0.00 | 0.00 | 0.00 | 74 | 1015.3 |
| 20260509191536 | 57 | 292 | 4.3 | 7.8 | 0.00 | 0.00 | 0.00 | 74 | 1015.2 |
| 20260509190045 | 58 | 309 | 5.2 | 9.6 | 0.00 | 0.00 | 0.00 | 73 | 1015.1 |
| 20260509184535 | 59 | 298 | 7.0 | 11.3 | 0.00 | 0.00 | 0.00 | 73 | 1015.3 |
| 20260509183037 | 60 | 290 | 7.0 | 12.2 | 0.00 | 0.00 | 0.00 | 71 | 1015.2 |
| 20260509181532 | 61 | 301 | 7.0 | 12.2 | 0.00 | 0.00 | 0.00 | 69 | 1015.4 |
| 20260509180031 | 61 | 296 | 9.6 | 16.5 | 0.00 | 0.00 | 0.00 | 68 | 1015.5 |
| 20260509174534 | 62 | 292 | 10.4 | 16.5 | 0.00 | 0.00 | 0.00 | 67 | 1015.3 |
| 20260509173031 | 63 | 254 | 9.6 | 15.6 | 0.00 | 0.00 | 0.00 | 67 | 1015.2 |
| 20260509171529 | 64 | 310 | 9.6 | 14.8 | 0.00 | 0.00 | 0.00 | 68 | 1015.3 |
| 20260509170031 | 64 | 262 | 9.6 | 13.9 | 0.00 | 0.00 | 0.00 | 67 | 1015.3 |
| 20260509164529 | 65 | 318 | 9.6 | 14.8 | 0.00 | 0.00 | 0.00 | 66 | 1015.2 |
| 20260509163035 | 65 | 286 | 8.7 | 13.9 | 0.00 | 0.00 | 0.00 | 65 | 1015.2 |
| 20260509161527 | 66 | 296 | 10.4 | 15.6 | 0.00 | 0.00 | 0.00 | 65 | 1015.5 |
| 20260509160030 | 66 | 300 | 11.3 | 16.5 | 0.00 | 0.00 | 0.00 | 65 | 1015.4 |
| 20260509154525 | 66 | 293 | 13.0 | 16.5 | 0.00 | 0.00 | 0.00 | 64 | 1015.5 |
| 20260509153025 | 67 | 274 | 7.0 | 15.6 | 0.00 | 0.00 | 0.00 | 64 | 1015.4 |
| 20260509151523 | 68 | 279 | 8.7 | 16.5 | 0.00 | 0.00 | 0.00 | 64 | 1015.5 |
| 20260509150023 | 68 | 271 | 11.3 | 15.6 | 0.00 | 0.00 | 0.00 | 64 | 1015.3 |
| 20260509144522 | 69 | 284 | 12.2 | 18.2 | 0.00 | 0.00 | 0.00 | 62 | 1015.4 |
| 20260509143028 | 69 | 309 | 10.4 | 19.1 | 0.00 | 0.00 | 0.00 | 63 | 1015.3 |
| 20260509141524 | 69 | 277 | 8.7 | 14.8 | 0.00 | 0.00 | 0.00 | 62 | 1015.4 |
| 20260509140019 | 69 | 277 | 6.1 | 11.3 | 0.00 | 0.00 | 0.00 | 60 | 1015.4 |
| 20260509134516 | 69 | 328 | 4.3 | 11.3 | 0.00 | 0.00 | 0.00 | 61 | 1015.4 |
| 20260509133013 | 69 | 300 | 3.5 | 8.7 | 0.00 | 0.00 | 0.00 | 61 | 1015.6 |
| 20260509131513 | 69 | 31 | 3.5 | 13.0 | 0.00 | 0.00 | 0.00 | 60 | 1015.7 |
| 20260509130015 | 69 | 333 | 7.0 | 10.4 | 0.00 | 0.00 | 0.00 | 61 | 1015.8 |
| 20260509124507 | 69 | 360 | 6.1 | 12.2 | 0.00 | 0.00 | 0.00 | 62 | 1016.0 |
| 20260509123005 | 68 | 309 | 4.3 | 11.3 | 0.00 | 0.00 | 0.00 | 61 | 1016.2 |
| 20260509121504 | 68 | 311 | 3.5 | 12.2 | 0.00 | 0.00 | 0.00 | 61 | 1016.3 |
| 20260509120002 | 68 | 13 | 3.5 | 11.3 | 0.00 | 0.00 | 0.00 | 62 | 1016.3 |
| 20260509114602 | 67 | 22 | 7.0 | 11.3 | 0.00 | 0.00 | 0.00 | 62 | 1016.4 |
| 20260509113057 | 68 | 325 | 9.6 | 14.8 | 0.00 | 0.00 | 0.00 | 63 | 1016.5 |
| 20260509111557 | 68 | 335 | 9.6 | 13.9 | 0.00 | 0.00 | 0.00 | 62 | 1016.7 |
| 20260509110057 | 67 | 13 | 8.7 | 13.0 | 0.00 | 0.00 | 0.00 | 62 | 1016.8 |
| 20260509104551 | 68 | 326 | 8.7 | 12.2 | 0.00 | 0.00 | 0.00 | 62 | 1016.9 |
| 20260509103047 | 67 | 313 | 7.8 | 13.0 | 0.00 | 0.00 | 0.00 | 64 | 1017.0 |
| 20260509101546 | 67 | 309 | 7.0 | 12.2 | 0.00 | 0.00 | 0.00 | 62 | 1016.9 |
| 20260509100048 | 67 | 335 | 8.7 | 13.0 | 0.00 | 0.00 | 0.00 | 63 | 1017.0 |
| 20260509094541 | 66 | 332 | 6.1 | 11.3 | 0.00 | 0.00 | 0.00 | 65 | 1017.0 |
| 20260509093036 | 66 | 360 | 8.7 | 13.0 | 0.00 | 0.00 | 0.00 | 64 | 1017.1 |
| 20260509091535 | 65 | 329 | 8.7 | 14.8 | 0.00 | 0.00 | 0.00 | 67 | 1017.4 |
| 20260509090029 | 64 | 324 | 7.8 | 11.3 | 0.00 | 0.00 | 0.00 | 68 | 1017.4 |
| 20260509084528 | 64 | 337 | 8.7 | 12.2 | 0.00 | 0.00 | 0.00 | 71 | 1017.4 |
| 20260509083019 | 63 | 355 | 8.7 | 11.3 | 0.00 | 0.00 | 0.00 | 72 | 1017.2 |